Year,Month,Day,Hour,Minute,Value (Times are PST for temperature in C)
2022,11,27,00,00,8.60
2022,11,27,00,01,8.70
2022,11,27,00,02,8.70
2022,11,27,00,03,8.70
2022,11,27,00,04,8.70
2022,11,27,00,05,8.70
2022,11,27,00,06,8.70
2022,11,27,00,07,8.70
2022,11,27,00,08,8.70
2022,11,27,00,09,8.60
2022,11,27,00,10,8.60
2022,11,27,00,11,8.50
2022,11,27,00,12,8.40
2022,11,27,00,13,8.30
2022,11,27,00,14,8.20
2022,11,27,00,15,8.10
2022,11,27,00,16,8.10
2022,11,27,00,17,8.00
2022,11,27,00,18,7.90
2022,11,27,00,19,7.80
2022,11,27,00,20,7.70
2022,11,27,00,21,7.70
2022,11,27,00,22,7.60
2022,11,27,00,23,7.60
2022,11,27,00,24,7.50
2022,11,27,00,25,7.40
2022,11,27,00,26,7.30
2022,11,27,00,27,7.30
2022,11,27,00,28,7.20
2022,11,27,00,29,7.10
2022,11,27,00,30,7.10
2022,11,27,00,31,7.00
2022,11,27,00,32,6.90
2022,11,27,00,33,6.90
2022,11,27,00,34,6.80
2022,11,27,00,35,6.80
2022,11,27,00,36,6.70
2022,11,27,00,37,6.70
2022,11,27,00,38,6.60
2022,11,27,00,39,6.60
2022,11,27,00,40,6.50
2022,11,27,00,41,6.40
2022,11,27,00,42,6.40
2022,11,27,00,43,6.30
2022,11,27,00,44,6.30
2022,11,27,00,45,6.20
2022,11,27,00,46,6.10
2022,11,27,00,47,6.00
2022,11,27,00,48,6.00
2022,11,27,00,49,5.90
2022,11,27,00,50,5.80
2022,11,27,00,51,5.80
2022,11,27,00,52,5.80
2022,11,27,00,53,5.70
2022,11,27,00,54,5.70
2022,11,27,00,55,5.60
2022,11,27,00,56,5.60
2022,11,27,00,57,5.50
2022,11,27,00,58,5.40
2022,11,27,00,59,5.40
2022,11,27,01,00,5.30
2022,11,27,01,01,5.30
2022,11,27,01,02,5.30
2022,11,27,01,03,5.20
2022,11,27,01,04,5.20
2022,11,27,01,05,5.20
2022,11,27,01,06,5.10
2022,11,27,01,07,5.10
2022,11,27,01,08,5.10
2022,11,27,01,09,5.00
2022,11,27,01,10,4.90
2022,11,27,01,11,4.90
2022,11,27,01,12,4.90
2022,11,27,01,13,4.80
2022,11,27,01,14,4.80
2022,11,27,01,15,4.70
2022,11,27,01,16,4.70
2022,11,27,01,17,4.70
2022,11,27,01,18,4.70
2022,11,27,01,19,4.70
2022,11,27,01,20,4.70
2022,11,27,01,21,4.70
2022,11,27,01,22,4.60
2022,11,27,01,23,4.60
2022,11,27,01,24,4.60
2022,11,27,01,25,4.60
2022,11,27,01,26,4.60
2022,11,27,01,27,4.50
2022,11,27,01,28,4.50
2022,11,27,01,29,4.50
2022,11,27,01,30,4.40
2022,11,27,01,31,4.40
2022,11,27,01,32,4.40
2022,11,27,01,33,4.40
2022,11,27,01,34,4.40
2022,11,27,01,35,4.40
2022,11,27,01,36,4.40
2022,11,27,01,37,4.40
2022,11,27,01,38,4.40
2022,11,27,01,39,4.40
2022,11,27,01,40,4.40
2022,11,27,01,41,4.50
2022,11,27,01,42,4.50
2022,11,27,01,43,4.50
2022,11,27,01,44,4.50
2022,11,27,01,45,4.50
2022,11,27,01,46,4.50
2022,11,27,01,47,4.40
2022,11,27,01,48,4.50
2022,11,27,01,49,4.50
2022,11,27,01,50,4.40
2022,11,27,01,51,4.40
2022,11,27,01,52,4.40
2022,11,27,01,53,4.40
2022,11,27,01,54,4.40
2022,11,27,01,55,4.40
2022,11,27,01,56,4.40
2022,11,27,01,57,4.40
2022,11,27,01,58,4.40
2022,11,27,01,59,4.40
2022,11,27,02,00,4.40
2022,11,27,02,01,4.40
2022,11,27,02,02,4.40
2022,11,27,02,03,4.40
2022,11,27,02,04,4.40
2022,11,27,02,05,4.40
2022,11,27,02,06,4.40
2022,11,27,02,07,4.40
2022,11,27,02,08,4.40
2022,11,27,02,09,4.50
2022,11,27,02,10,4.50
2022,11,27,02,11,4.50
2022,11,27,02,12,4.60
2022,11,27,02,13,4.60
2022,11,27,02,14,4.60
2022,11,27,02,15,4.60
2022,11,27,02,16,4.60
2022,11,27,02,17,4.60
2022,11,27,02,18,4.70
2022,11,27,02,19,4.70
2022,11,27,02,20,4.70
2022,11,27,02,21,4.70
2022,11,27,02,22,4.60
2022,11,27,02,23,4.60
2022,11,27,02,24,4.60
2022,11,27,02,25,4.60
2022,11,27,02,26,4.50
2022,11,27,02,27,4.50
2022,11,27,02,28,4.50
2022,11,27,02,29,4.50
2022,11,27,02,30,4.60
2022,11,27,02,31,4.60
2022,11,27,02,32,4.60
2022,11,27,02,33,4.50
2022,11,27,02,34,4.50
2022,11,27,02,35,4.50
2022,11,27,02,36,4.50
2022,11,27,02,37,4.60
2022,11,27,02,38,4.60
2022,11,27,02,39,4.60
2022,11,27,02,40,4.50
2022,11,27,02,41,4.50
2022,11,27,02,42,4.50
2022,11,27,02,43,4.40
2022,11,27,02,44,4.40
2022,11,27,02,45,4.40
2022,11,27,02,46,4.30
2022,11,27,02,47,4.30
2022,11,27,02,48,4.30
2022,11,27,02,49,4.30
2022,11,27,02,50,4.30
2022,11,27,02,51,4.30
2022,11,27,02,52,4.30
2022,11,27,02,53,4.30
2022,11,27,02,54,4.30
2022,11,27,02,55,4.20
2022,11,27,02,56,4.20
2022,11,27,02,57,4.20
2022,11,27,02,58,4.20
2022,11,27,02,59,4.10
2022,11,27,03,00,4.10
2022,11,27,03,01,4.10
2022,11,27,03,02,4.10
2022,11,27,03,03,4.00
2022,11,27,03,04,4.00
2022,11,27,03,05,4.00
2022,11,27,03,06,4.10
2022,11,27,03,07,4.10
2022,11,27,03,08,4.20
2022,11,27,03,09,4.20
2022,11,27,03,10,4.20
2022,11,27,03,11,4.20
2022,11,27,03,12,4.20
2022,11,27,03,13,4.10
2022,11,27,03,14,4.10
2022,11,27,03,15,4.10
2022,11,27,03,16,4.10
2022,11,27,03,17,4.00
2022,11,27,03,18,4.00
2022,11,27,03,19,4.00
2022,11,27,03,20,3.90
2022,11,27,03,21,3.90
2022,11,27,03,22,3.90
2022,11,27,03,23,3.90
2022,11,27,03,24,3.90
2022,11,27,03,25,3.90
2022,11,27,03,26,3.90
2022,11,27,03,27,3.80
2022,11,27,03,28,3.80
2022,11,27,03,29,3.80
2022,11,27,03,30,3.70
2022,11,27,03,31,3.70
2022,11,27,03,32,3.70
2022,11,27,03,33,3.70
2022,11,27,03,34,3.60
2022,11,27,03,35,3.60
2022,11,27,03,36,3.60
2022,11,27,03,37,3.50
2022,11,27,03,38,3.50
2022,11,27,03,39,3.50
2022,11,27,03,40,3.40
2022,11,27,03,41,3.40
2022,11,27,03,42,3.40
2022,11,27,03,43,3.30
2022,11,27,03,44,3.30
2022,11,27,03,45,3.30
2022,11,27,03,46,3.30
2022,11,27,03,47,3.30
2022,11,27,03,48,3.20
2022,11,27,03,49,3.20
2022,11,27,03,50,3.20
2022,11,27,03,51,3.20
2022,11,27,03,52,3.10
2022,11,27,03,53,3.10
2022,11,27,03,54,3.10
2022,11,27,03,55,3.10
2022,11,27,03,56,3.10
2022,11,27,03,57,3.00
2022,11,27,03,58,3.00
2022,11,27,03,59,3.00
2022,11,27,04,00,3.00
2022,11,27,04,01,2.90
2022,11,27,04,02,2.90
2022,11,27,04,03,2.90
2022,11,27,04,04,2.90
2022,11,27,04,05,2.90
2022,11,27,04,06,2.90
2022,11,27,04,07,2.90
2022,11,27,04,08,2.80
2022,11,27,04,09,2.80
2022,11,27,04,10,2.80
2022,11,27,04,11,2.80
2022,11,27,04,12,2.70
2022,11,27,04,13,2.70
2022,11,27,04,14,2.70
2022,11,27,04,15,2.70
2022,11,27,04,16,2.60
2022,11,27,04,17,2.60
2022,11,27,04,18,2.60
2022,11,27,04,19,2.60
2022,11,27,04,20,2.50
2022,11,27,04,21,2.50
2022,11,27,04,22,2.50
2022,11,27,04,23,2.50
2022,11,27,04,24,2.50
2022,11,27,04,25,2.40
2022,11,27,04,26,2.40
2022,11,27,04,27,2.40
2022,11,27,04,28,2.40
2022,11,27,04,29,2.50
2022,11,27,04,30,2.50
2022,11,27,04,31,2.50
2022,11,27,04,32,2.60
2022,11,27,04,33,2.60
2022,11,27,04,34,2.70
2022,11,27,04,35,2.70
2022,11,27,04,36,2.70
2022,11,27,04,37,2.70
2022,11,27,04,38,2.80
2022,11,27,04,39,2.80
2022,11,27,04,40,2.80
2022,11,27,04,41,2.90
2022,11,27,04,42,2.90
2022,11,27,04,43,2.90
2022,11,27,04,44,3.00
2022,11,27,04,45,3.00
2022,11,27,04,46,3.10
2022,11,27,04,47,3.10
2022,11,27,04,48,3.20
2022,11,27,04,49,3.20
2022,11,27,04,50,3.20
2022,11,27,04,51,3.20
2022,11,27,04,52,3.30
2022,11,27,04,53,3.30
2022,11,27,04,54,3.30
2022,11,27,04,55,3.30
2022,11,27,04,56,3.30
2022,11,27,04,57,3.30
2022,11,27,04,58,3.40
2022,11,27,04,59,3.40
2022,11,27,05,00,3.40
2022,11,27,05,01,3.40
2022,11,27,05,02,3.40
2022,11,27,05,03,3.40
2022,11,27,05,04,3.40
2022,11,27,05,05,3.40
2022,11,27,05,06,3.40
2022,11,27,05,07,3.40
2022,11,27,05,08,3.40
2022,11,27,05,09,3.40
2022,11,27,05,10,3.40
2022,11,27,05,11,3.40
2022,11,27,05,12,3.30
2022,11,27,05,13,3.30
2022,11,27,05,14,3.30
2022,11,27,05,15,3.30
2022,11,27,05,16,3.30
2022,11,27,05,17,3.30
2022,11,27,05,18,3.20
2022,11,27,05,19,3.20
2022,11,27,05,20,3.20
2022,11,27,05,21,3.10
2022,11,27,05,22,3.10
2022,11,27,05,23,3.10
2022,11,27,05,24,3.10
2022,11,27,05,25,3.00
2022,11,27,05,26,3.00
2022,11,27,05,27,3.00
2022,11,27,05,28,3.00
2022,11,27,05,29,2.90
2022,11,27,05,30,2.90
2022,11,27,05,31,2.90
2022,11,27,05,32,2.90
2022,11,27,05,33,2.80
2022,11,27,05,34,2.80
2022,11,27,05,35,2.80
2022,11,27,05,36,2.80
2022,11,27,05,37,2.70
2022,11,27,05,38,2.70
2022,11,27,05,39,2.70
2022,11,27,05,40,2.70
2022,11,27,05,41,2.70
2022,11,27,05,42,2.60
2022,11,27,05,43,2.60
2022,11,27,05,44,2.60
2022,11,27,05,45,2.60
2022,11,27,05,46,2.50
2022,11,27,05,47,2.50
2022,11,27,05,48,2.40
2022,11,27,05,49,2.40
2022,11,27,05,50,2.40
2022,11,27,05,51,2.30
2022,11,27,05,52,2.30
2022,11,27,05,53,2.30
2022,11,27,05,54,2.30
2022,11,27,05,55,2.20
2022,11,27,05,56,2.20
2022,11,27,05,57,2.20
2022,11,27,05,58,2.10
2022,11,27,05,59,2.10
2022,11,27,06,00,2.10
2022,11,27,06,01,2.00
2022,11,27,06,02,2.00
2022,11,27,06,03,2.00
2022,11,27,06,04,1.90
2022,11,27,06,05,1.90
2022,11,27,06,06,1.90
2022,11,27,06,07,1.90
2022,11,27,06,08,1.80
2022,11,27,06,09,1.80
2022,11,27,06,10,1.80
2022,11,27,06,11,1.70
2022,11,27,06,12,1.70
2022,11,27,06,13,1.70
2022,11,27,06,14,1.70
2022,11,27,06,15,1.60
2022,11,27,06,16,1.60
2022,11,27,06,17,1.60
2022,11,27,06,18,1.60
2022,11,27,06,19,1.60
2022,11,27,06,20,1.70
2022,11,27,06,21,1.70
2022,11,27,06,22,1.70
2022,11,27,06,23,1.70
2022,11,27,06,24,1.70
2022,11,27,06,25,1.70
2022,11,27,06,26,1.70
2022,11,27,06,27,1.80
2022,11,27,06,28,1.80
2022,11,27,06,29,1.80
2022,11,27,06,30,1.80
2022,11,27,06,31,1.80
2022,11,27,06,32,1.80
2022,11,27,06,33,1.80
2022,11,27,06,34,1.80
2022,11,27,06,35,1.80
2022,11,27,06,36,1.80
2022,11,27,06,37,1.80
2022,11,27,06,38,1.80
2022,11,27,06,39,1.80
2022,11,27,06,40,1.80
2022,11,27,06,41,1.80
2022,11,27,06,42,1.80
2022,11,27,06,43,1.80
2022,11,27,06,44,1.80
2022,11,27,06,45,1.80
2022,11,27,06,46,1.80
2022,11,27,06,47,1.80
2022,11,27,06,48,1.80
2022,11,27,06,49,1.80
2022,11,27,06,50,1.80
2022,11,27,06,51,1.80
2022,11,27,06,52,1.90
2022,11,27,06,53,1.90
2022,11,27,06,54,1.90
2022,11,27,06,55,1.80
2022,11,27,06,56,1.80
2022,11,27,06,57,1.80
2022,11,27,06,58,1.80
2022,11,27,06,59,1.80
2022,11,27,07,00,1.80
2022,11,27,07,01,1.80
2022,11,27,07,02,1.80
2022,11,27,07,03,1.80
2022,11,27,07,04,1.80
2022,11,27,07,05,1.80
2022,11,27,07,06,1.80
2022,11,27,07,07,1.80
2022,11,27,07,08,1.80
2022,11,27,07,09,1.80
2022,11,27,07,10,1.80
2022,11,27,07,11,1.70
2022,11,27,07,12,1.70
2022,11,27,07,13,1.70
2022,11,27,07,14,1.60
2022,11,27,07,15,1.60
2022,11,27,07,16,1.50
2022,11,27,07,17,1.50
2022,11,27,07,18,1.40
2022,11,27,07,19,1.40
2022,11,27,07,20,1.30
2022,11,27,07,21,1.30
2022,11,27,07,22,1.20
2022,11,27,07,23,1.20
2022,11,27,07,24,1.20
2022,11,27,07,25,1.30
2022,11,27,07,26,1.30
2022,11,27,07,27,1.30
2022,11,27,07,28,1.30
2022,11,27,07,29,1.30
2022,11,27,07,30,1.40
2022,11,27,07,31,1.40
2022,11,27,07,32,1.40
2022,11,27,07,33,1.40
2022,11,27,07,34,1.40
2022,11,27,07,35,1.40
2022,11,27,07,36,1.40
2022,11,27,07,37,1.40
2022,11,27,07,38,1.40
2022,11,27,07,39,1.40
2022,11,27,07,40,1.40
2022,11,27,07,41,1.40
2022,11,27,07,42,1.40
2022,11,27,07,43,1.40
2022,11,27,07,44,1.40
2022,11,27,07,45,1.40
2022,11,27,07,46,1.40
2022,11,27,07,47,1.40
2022,11,27,07,48,1.40
2022,11,27,07,49,1.40
2022,11,27,07,50,1.40
2022,11,27,07,51,1.40
2022,11,27,07,52,1.50
2022,11,27,07,53,1.50
2022,11,27,07,54,1.50
2022,11,27,07,55,1.50
2022,11,27,07,56,1.50
2022,11,27,07,57,1.60
2022,11,27,07,58,1.60
2022,11,27,07,59,1.60
2022,11,27,08,00,1.60
2022,11,27,08,01,1.60
2022,11,27,08,02,1.60
2022,11,27,08,03,1.60
2022,11,27,08,04,1.60
2022,11,27,08,05,1.60
2022,11,27,08,06,1.60
2022,11,27,08,07,1.60
2022,11,27,08,08,1.60
2022,11,27,08,09,1.50
2022,11,27,08,10,1.50
2022,11,27,08,11,1.50
2022,11,27,08,12,1.40
2022,11,27,08,13,1.40
2022,11,27,08,14,1.40
2022,11,27,08,15,1.40
2022,11,27,08,16,1.30
2022,11,27,08,17,1.30
2022,11,27,08,18,1.30
2022,11,27,08,19,1.30
2022,11,27,08,20,1.30
2022,11,27,08,21,1.20
2022,11,27,08,22,1.20
2022,11,27,08,23,1.20
2022,11,27,08,24,1.30
2022,11,27,08,25,1.30
2022,11,27,08,26,1.30
2022,11,27,08,27,1.30
2022,11,27,08,28,1.40
2022,11,27,08,29,1.40
2022,11,27,08,30,1.40
2022,11,27,08,31,1.50
2022,11,27,08,32,1.50
2022,11,27,08,33,1.60
2022,11,27,08,34,1.60
2022,11,27,08,35,1.60
2022,11,27,08,36,1.70
2022,11,27,08,37,1.70
2022,11,27,08,38,1.70
2022,11,27,08,39,1.80
2022,11,27,08,40,1.80
2022,11,27,08,41,1.80
2022,11,27,08,42,1.80
2022,11,27,08,43,1.80
2022,11,27,08,44,1.80
2022,11,27,08,45,1.80
2022,11,27,08,46,1.80
2022,11,27,08,47,1.80
2022,11,27,08,48,1.80
2022,11,27,08,49,1.80
2022,11,27,08,50,1.80
2022,11,27,08,51,1.80
2022,11,27,08,52,1.80
2022,11,27,08,53,1.80
2022,11,27,08,54,1.80
2022,11,27,08,55,1.80
2022,11,27,08,56,1.90
2022,11,27,08,57,1.90
2022,11,27,08,58,2.00
2022,11,27,08,59,2.00
2022,11,27,09,00,2.10
2022,11,27,09,01,2.10
2022,11,27,09,02,2.20
2022,11,27,09,03,2.20
2022,11,27,09,04,2.20
2022,11,27,09,05,2.30
2022,11,27,09,06,2.30
2022,11,27,09,07,2.30
2022,11,27,09,08,2.30
2022,11,27,09,09,2.40
2022,11,27,09,10,2.40
2022,11,27,09,11,2.50
2022,11,27,09,12,2.50
2022,11,27,09,13,2.60
2022,11,27,09,14,2.60
2022,11,27,09,15,2.60
2022,11,27,09,16,2.60
2022,11,27,09,17,2.70
2022,11,27,09,18,2.70
2022,11,27,09,19,2.70
2022,11,27,09,20,2.80
2022,11,27,09,21,2.80
2022,11,27,09,22,2.90
2022,11,27,09,23,3.00
2022,11,27,09,24,3.00
2022,11,27,09,25,3.10
2022,11,27,09,26,3.20
2022,11,27,09,27,3.20
2022,11,27,09,28,3.30
2022,11,27,09,29,3.30
2022,11,27,09,30,3.30
2022,11,27,09,31,3.40
2022,11,27,09,32,3.40
2022,11,27,09,33,3.40
2022,11,27,09,34,3.50
2022,11,27,09,35,3.50
2022,11,27,09,36,3.60
2022,11,27,09,37,3.60
2022,11,27,09,38,3.60
2022,11,27,09,39,3.70
2022,11,27,09,40,3.70
2022,11,27,09,41,3.70
2022,11,27,09,42,3.70
2022,11,27,09,43,3.80
2022,11,27,09,44,3.80
2022,11,27,09,45,3.90
2022,11,27,09,46,4.00
2022,11,27,09,47,4.00
2022,11,27,09,48,4.10
2022,11,27,09,49,4.10
2022,11,27,09,50,4.20
2022,11,27,09,51,4.20
2022,11,27,09,52,4.30
2022,11,27,09,53,4.40
2022,11,27,09,54,4.40
2022,11,27,09,55,4.50
2022,11,27,09,56,4.50
2022,11,27,09,57,4.50
2022,11,27,09,58,4.60
2022,11,27,09,59,4.60
2022,11,27,10,00,4.60
2022,11,27,10,01,4.70
2022,11,27,10,02,4.70
2022,11,27,10,03,4.70
2022,11,27,10,04,4.70
2022,11,27,10,05,4.70
2022,11,27,10,06,4.70
2022,11,27,10,07,4.70
2022,11,27,10,08,4.80
2022,11,27,10,09,4.80
2022,11,27,10,10,4.80
2022,11,27,10,11,4.90
2022,11,27,10,12,4.90
2022,11,27,10,13,4.80
2022,11,27,10,14,4.80
2022,11,27,10,15,4.80
2022,11,27,10,16,4.80
2022,11,27,10,17,4.90
2022,11,27,10,18,4.90
2022,11,27,10,19,4.90
2022,11,27,10,20,4.90
2022,11,27,10,21,4.90
2022,11,27,10,22,4.80
2022,11,27,10,23,4.80
2022,11,27,10,24,4.80
2022,11,27,10,25,4.80
2022,11,27,10,26,4.80
2022,11,27,10,27,4.80
2022,11,27,10,28,4.80
2022,11,27,10,29,4.80
2022,11,27,10,30,4.80
2022,11,27,10,31,4.70
2022,11,27,10,32,4.70
2022,11,27,10,33,4.70
2022,11,27,10,34,4.70
2022,11,27,10,35,4.70
2022,11,27,10,36,4.70
2022,11,27,10,37,4.70
2022,11,27,10,38,4.70
2022,11,27,10,39,4.70
2022,11,27,10,40,4.70
2022,11,27,10,41,4.70
2022,11,27,10,42,4.70
2022,11,27,10,43,4.70
2022,11,27,10,44,4.80
2022,11,27,10,45,4.80
2022,11,27,10,46,4.80
2022,11,27,10,47,4.90
2022,11,27,10,48,4.90
2022,11,27,10,49,4.90
2022,11,27,10,50,4.90
2022,11,27,10,51,4.90
2022,11,27,10,52,5.00
2022,11,27,10,53,5.00
2022,11,27,10,54,5.10
2022,11,27,10,55,5.10
2022,11,27,10,56,5.10
2022,11,27,10,57,5.10
2022,11,27,10,58,5.10
2022,11,27,10,59,5.10
2022,11,27,11,00,5.10
2022,11,27,11,01,5.10
2022,11,27,11,02,5.20
2022,11,27,11,03,5.20
2022,11,27,11,04,5.20
2022,11,27,11,05,5.30
2022,11,27,11,06,5.30
2022,11,27,11,07,5.30
2022,11,27,11,08,5.40
2022,11,27,11,09,5.40
2022,11,27,11,10,5.40
2022,11,27,11,11,5.40
2022,11,27,11,12,5.50
2022,11,27,11,13,5.50
2022,11,27,11,14,5.50
2022,11,27,11,15,5.50
2022,11,27,11,16,5.60
2022,11,27,11,17,5.60
2022,11,27,11,18,5.60
2022,11,27,11,19,5.60
2022,11,27,11,20,5.70
2022,11,27,11,21,5.60
2022,11,27,11,22,5.70
2022,11,27,11,23,5.60
2022,11,27,11,24,5.60
2022,11,27,11,25,5.60
2022,11,27,11,26,5.60
2022,11,27,11,27,5.50
2022,11,27,11,28,5.50
2022,11,27,11,29,5.50
2022,11,27,11,30,5.50
2022,11,27,11,31,5.50
2022,11,27,11,32,5.50
2022,11,27,11,33,5.40
2022,11,27,11,34,5.40
2022,11,27,11,35,5.40
2022,11,27,11,36,5.40
2022,11,27,11,37,5.40
2022,11,27,11,38,5.30
2022,11,27,11,39,5.30
2022,11,27,11,40,5.30
2022,11,27,11,41,5.30
2022,11,27,11,42,5.30
2022,11,27,11,43,5.30
2022,11,27,11,44,5.30
2022,11,27,11,45,5.30
2022,11,27,11,46,5.40
2022,11,27,11,47,5.40
2022,11,27,11,48,5.40
2022,11,27,11,49,5.40
2022,11,27,11,50,5.50
2022,11,27,11,51,5.50
2022,11,27,11,52,5.50
2022,11,27,11,53,5.50
2022,11,27,11,54,5.50
2022,11,27,11,55,5.60
2022,11,27,11,56,5.60
2022,11,27,11,57,5.60
2022,11,27,11,58,5.60
2022,11,27,11,59,5.60
2022,11,27,12,00,5.60
2022,11,27,12,01,5.70
2022,11,27,12,02,5.70
2022,11,27,12,03,5.70
2022,11,27,12,04,5.70
2022,11,27,12,05,5.70
2022,11,27,12,06,5.80
2022,11,27,12,07,5.80
2022,11,27,12,08,5.80
2022,11,27,12,09,5.80
2022,11,27,12,10,5.80
2022,11,27,12,11,5.80
2022,11,27,12,12,5.80
2022,11,27,12,13,5.80
2022,11,27,12,14,5.90
2022,11,27,12,15,5.90
2022,11,27,12,16,6.00
2022,11,27,12,17,6.00
2022,11,27,12,18,6.00
2022,11,27,12,19,6.10
2022,11,27,12,20,6.10
2022,11,27,12,21,6.10
2022,11,27,12,22,6.10
2022,11,27,12,23,6.10
2022,11,27,12,24,6.10
2022,11,27,12,25,6.20
2022,11,27,12,26,6.20
2022,11,27,12,27,6.30
2022,11,27,12,28,6.30
2022,11,27,12,29,6.30
2022,11,27,12,30,6.30
2022,11,27,12,31,6.30
2022,11,27,12,32,6.30
2022,11,27,12,33,6.30
2022,11,27,12,34,6.30
2022,11,27,12,35,6.30
2022,11,27,12,36,6.30
2022,11,27,12,37,6.30
2022,11,27,12,38,6.30
2022,11,27,12,39,6.30
2022,11,27,12,40,6.30
2022,11,27,12,41,6.30
2022,11,27,12,42,6.30
2022,11,27,12,43,6.20
2022,11,27,12,44,6.20
2022,11,27,12,45,6.20
2022,11,27,12,46,6.20
2022,11,27,12,47,6.20
2022,11,27,12,48,6.20
2022,11,27,12,49,6.20
2022,11,27,12,50,6.20
2022,11,27,12,51,6.10
2022,11,27,12,52,6.10
2022,11,27,12,53,6.10
2022,11,27,12,54,6.00
2022,11,27,12,55,6.00
2022,11,27,12,56,6.00
2022,11,27,12,57,6.00
2022,11,27,12,58,6.00
2022,11,27,12,59,6.00
2022,11,27,13,00,6.00
2022,11,27,13,01,5.90
2022,11,27,13,02,5.90
2022,11,27,13,03,5.90
2022,11,27,13,04,5.80
2022,11,27,13,05,5.80
2022,11,27,13,06,5.80
2022,11,27,13,07,5.80
2022,11,27,13,08,5.80
2022,11,27,13,09,5.80
2022,11,27,13,10,5.80
2022,11,27,13,11,5.80
2022,11,27,13,12,5.80
2022,11,27,13,13,5.70
2022,11,27,13,14,5.70
2022,11,27,13,15,5.60
2022,11,27,13,16,5.60
2022,11,27,13,17,5.60
2022,11,27,13,18,5.50
2022,11,27,13,19,5.50
2022,11,27,13,20,5.50
2022,11,27,13,21,5.40
2022,11,27,13,22,5.40
2022,11,27,13,23,5.40
2022,11,27,13,24,5.40
2022,11,27,13,25,5.40
2022,11,27,13,26,5.40
2022,11,27,13,27,5.40
2022,11,27,13,28,5.40
2022,11,27,13,29,5.40
2022,11,27,13,30,5.40
2022,11,27,13,31,5.30
2022,11,27,13,32,5.30
2022,11,27,13,33,5.20
2022,11,27,13,34,5.20
2022,11,27,13,35,5.10
2022,11,27,13,36,5.10
2022,11,27,13,37,5.00
2022,11,27,13,38,5.00
2022,11,27,13,39,5.00
2022,11,27,13,40,4.90
2022,11,27,13,41,4.90
2022,11,27,13,42,4.80
2022,11,27,13,43,4.80
2022,11,27,13,44,4.80
2022,11,27,13,45,4.80
2022,11,27,13,46,4.70
2022,11,27,13,47,4.70
2022,11,27,13,48,4.70
2022,11,27,13,49,4.70
2022,11,27,13,50,4.70
2022,11,27,13,51,4.70
2022,11,27,13,52,4.70
2022,11,27,13,53,4.60
2022,11,27,13,54,4.60
2022,11,27,13,55,4.60
2022,11,27,13,56,4.60
2022,11,27,13,57,4.60
2022,11,27,13,58,4.60
2022,11,27,13,59,4.60
2022,11,27,14,00,4.60
2022,11,27,14,01,4.60
2022,11,27,14,02,4.60
2022,11,27,14,03,4.60
2022,11,27,14,04,4.60
2022,11,27,14,05,4.60
2022,11,27,14,06,4.60
2022,11,27,14,07,4.70
2022,11,27,14,08,4.70
2022,11,27,14,09,4.70
2022,11,27,14,10,4.70
2022,11,27,14,11,4.70
2022,11,27,14,12,4.70
2022,11,27,14,13,4.70
2022,11,27,14,14,4.70
2022,11,27,14,15,4.70
2022,11,27,14,16,4.70
2022,11,27,14,17,4.70
2022,11,27,14,18,4.80
2022,11,27,14,19,4.80
2022,11,27,14,20,4.80
2022,11,27,14,21,4.80
2022,11,27,14,22,4.80
2022,11,27,14,23,4.80
2022,11,27,14,24,4.80
2022,11,27,14,25,4.70
2022,11,27,14,26,4.70
2022,11,27,14,27,4.70
2022,11,27,14,28,4.70
2022,11,27,14,29,4.70
2022,11,27,14,30,4.70
2022,11,27,14,31,4.70
2022,11,27,14,32,4.70
2022,11,27,14,33,4.70
2022,11,27,14,34,4.70
2022,11,27,14,35,4.70
2022,11,27,14,36,4.70
2022,11,27,14,37,4.70
2022,11,27,14,38,4.70
2022,11,27,14,39,4.70
2022,11,27,14,40,4.70
2022,11,27,14,41,4.70
2022,11,27,14,42,4.60
2022,11,27,14,43,4.60
2022,11,27,14,44,4.60
2022,11,27,14,45,4.60
2022,11,27,14,46,4.60
2022,11,27,14,47,4.60
2022,11,27,14,48,4.60
2022,11,27,14,49,4.60
2022,11,27,14,50,4.60
2022,11,27,14,51,4.60
2022,11,27,14,52,4.60
2022,11,27,14,53,4.50
2022,11,27,14,54,4.50
2022,11,27,14,55,4.50
2022,11,27,14,56,4.50
2022,11,27,14,57,4.50
2022,11,27,14,58,4.50
2022,11,27,14,59,4.50
2022,11,27,15,00,4.50
2022,11,27,15,01,4.40
2022,11,27,15,02,4.40
2022,11,27,15,03,4.40
2022,11,27,15,04,4.40
2022,11,27,15,05,4.50
2022,11,27,15,06,4.50
2022,11,27,15,07,4.50
2022,11,27,15,08,4.50
2022,11,27,15,09,4.50
2022,11,27,15,10,4.40
2022,11,27,15,11,4.40
2022,11,27,15,12,4.40
2022,11,27,15,13,4.40
2022,11,27,15,14,4.40
2022,11,27,15,15,4.40
2022,11,27,15,16,4.40
2022,11,27,15,17,4.40
2022,11,27,15,18,4.40
2022,11,27,15,19,4.40
2022,11,27,15,20,4.40
2022,11,27,15,21,4.40
2022,11,27,15,22,4.40
2022,11,27,15,23,4.30
2022,11,27,15,24,4.30
2022,11,27,15,25,4.30
2022,11,27,15,26,4.30
2022,11,27,15,27,4.30
2022,11,27,15,28,4.30
2022,11,27,15,29,4.40
2022,11,27,15,30,4.40
2022,11,27,15,31,4.40
2022,11,27,15,32,4.40
2022,11,27,15,33,4.40
2022,11,27,15,34,4.40
2022,11,27,15,35,4.40
2022,11,27,15,36,4.40
2022,11,27,15,37,4.40
2022,11,27,15,38,4.40
2022,11,27,15,39,4.40
2022,11,27,15,40,4.40
2022,11,27,15,41,4.40
2022,11,27,15,42,4.40
2022,11,27,15,43,4.40
2022,11,27,15,44,4.40
2022,11,27,15,45,4.40
2022,11,27,15,46,4.40
2022,11,27,15,47,4.40
2022,11,27,15,48,4.40
2022,11,27,15,49,4.40
2022,11,27,15,50,4.40
2022,11,27,15,51,4.30
2022,11,27,15,52,4.30
2022,11,27,15,53,4.30
2022,11,27,15,54,4.30
2022,11,27,15,55,4.30
2022,11,27,15,56,4.20
2022,11,27,15,57,4.20
2022,11,27,15,58,4.20
2022,11,27,15,59,4.20
2022,11,27,16,00,4.20
2022,11,27,16,01,4.10
2022,11,27,16,02,4.10
2022,11,27,16,03,4.10
2022,11,27,16,04,4.10
2022,11,27,16,05,4.10
2022,11,27,16,06,4.00
2022,11,27,16,07,4.00
2022,11,27,16,08,3.90
2022,11,27,16,09,3.90
2022,11,27,16,10,3.80
2022,11,27,16,11,3.80
2022,11,27,16,12,3.70
2022,11,27,16,13,3.70
2022,11,27,16,14,3.70
2022,11,27,16,15,3.70
2022,11,27,16,16,3.60
2022,11,27,16,17,3.60
2022,11,27,16,18,3.60
2022,11,27,16,19,3.60
2022,11,27,16,20,3.50
2022,11,27,16,21,3.50
2022,11,27,16,22,3.40
2022,11,27,16,23,3.40
2022,11,27,16,24,3.40
2022,11,27,16,25,3.40
2022,11,27,16,26,3.30
2022,11,27,16,27,3.30
2022,11,27,16,28,3.20
2022,11,27,16,29,3.20
2022,11,27,16,30,3.10
2022,11,27,16,31,3.10
2022,11,27,16,32,3.00
2022,11,27,16,33,3.00
2022,11,27,16,34,2.90
2022,11,27,16,35,2.90
2022,11,27,16,36,2.90
2022,11,27,16,37,2.80
2022,11,27,16,38,2.80
2022,11,27,16,39,2.80
2022,11,27,16,40,2.80
2022,11,27,16,41,2.70
2022,11,27,16,42,2.70
2022,11,27,16,43,2.70
2022,11,27,16,44,2.60
2022,11,27,16,45,2.60
2022,11,27,16,46,2.50
2022,11,27,16,47,2.50
2022,11,27,16,48,2.50
2022,11,27,16,49,2.40
2022,11,27,16,50,2.40
2022,11,27,16,51,2.30
2022,11,27,16,52,2.30
2022,11,27,16,53,2.30
2022,11,27,16,54,2.20
2022,11,27,16,55,2.20
2022,11,27,16,56,2.20
2022,11,27,16,57,2.20
2022,11,27,16,58,2.20
2022,11,27,16,59,2.10
2022,11,27,17,00,2.10
2022,11,27,17,01,2.10
2022,11,27,17,02,2.10
2022,11,27,17,03,2.10
2022,11,27,17,04,2.00
2022,11,27,17,05,2.00
2022,11,27,17,06,2.00
2022,11,27,17,07,1.90
2022,11,27,17,08,1.90
2022,11,27,17,09,1.90
2022,11,27,17,10,1.90
2022,11,27,17,11,1.90
2022,11,27,17,12,1.90
2022,11,27,17,13,1.80
2022,11,27,17,14,1.80
2022,11,27,17,15,1.80
2022,11,27,17,16,1.80
2022,11,27,17,17,1.80
2022,11,27,17,18,1.80
2022,11,27,17,19,1.80
2022,11,27,17,20,1.80
2022,11,27,17,21,1.70
2022,11,27,17,22,1.70
2022,11,27,17,23,1.70
2022,11,27,17,24,1.70
2022,11,27,17,25,1.70
2022,11,27,17,26,1.70
2022,11,27,17,27,1.70
2022,11,27,17,28,1.70
2022,11,27,17,29,1.70
2022,11,27,17,30,1.60
2022,11,27,17,31,1.60
2022,11,27,17,32,1.60
2022,11,27,17,33,1.60
2022,11,27,17,34,1.60
2022,11,27,17,35,1.60
2022,11,27,17,36,1.60
2022,11,27,17,37,1.60
2022,11,27,17,38,1.60
2022,11,27,17,39,1.60
2022,11,27,17,40,1.60
2022,11,27,17,41,1.60
2022,11,27,17,42,1.60
2022,11,27,17,43,1.60
2022,11,27,17,44,1.60
2022,11,27,17,45,1.60
2022,11,27,17,46,1.60
2022,11,27,17,47,1.60
2022,11,27,17,48,1.60
2022,11,27,17,49,1.60
2022,11,27,17,50,1.60
2022,11,27,17,51,1.60
2022,11,27,17,52,1.60
2022,11,27,17,53,1.50
2022,11,27,17,54,1.50
2022,11,27,17,55,1.50
2022,11,27,17,56,1.50
2022,11,27,17,57,1.50
2022,11,27,17,58,1.50
2022,11,27,17,59,1.50
2022,11,27,18,00,1.50
2022,11,27,18,01,1.50
2022,11,27,18,02,1.40
2022,11,27,18,03,1.50
2022,11,27,18,04,1.40
2022,11,27,18,05,1.40
2022,11,27,18,06,1.40